Date String (YYYY-MM-DD hh:mm:ss) UTC,Instrument flags,Ambient pressure (hPa),Sample flow (lpm),Bypass flow (lpm),Sample temperature (°C),Ambient temperature (°C),ASC tube jacket temperature (°C),LED temperature (°C),Box temperature (°C),Sample RH (%),Span deviation,Mass concentration (μg/m³),Mass concentration (μg/m³),Mass concentration (μg/m³)
DateTimeUTC,F1_M11,P_M11,Q1_M11,Q2_M11,T1_M11,T2_M11,T3_M11,T4_M11,T5_M11,U1_M11,ZSPAN_M11,X0_M11,X2_M11,X1_M11
2022-04-19 11:00:00,,0819.8,5.02,0.00,25.5,24.6,00.0,34.6,27.3,15.7,0001.0,0027.87,0010.99,0008.16
2022-04-19 11:01:00,,0819.8,4.99,0.00,25.5,24.5,00.0,34.5,27.3,15.7,0001.1,0027.59,0010.98,0008.11
2022-04-19 11:02:00,,0819.7,5.01,0.00,25.5,24.5,00.0,34.5,27.3,15.5,0001.5,0027.61,0010.91,0008.02
2022-04-19 11:03:00,,0819.7,5.00,0.00,25.5,24.5,00.0,34.5,27.2,15.2,0002.0,0027.37,0010.79,0007.92
2022-04-19 11:04:00,,0819.7,5.00,0.00,25.4,24.4,00.0,34.5,27.2,15.0,0002.1,0026.89,0010.62,0007.78
2022-04-19 11:05:00,,0819.7,5.00,0.00,25.4,24.4,00.0,34.5,27.2,14.9,0002.4,0026.83,0010.32,0007.64
2022-04-19 11:06:00,,0819.7,5.00,0.00,25.4,24.4,00.0,34.5,27.2,14.9,0002.3,0027.50,0010.16,0007.51
2022-04-19 11:07:00,,0819.7,5.00,0.00,25.4,24.4,00.0,34.5,27.2,14.9,0002.3,0027.30,0010.07,0007.40
2022-04-19 11:08:00,,0819.7,4.99,0.00,25.4,24.5,00.0,34.4,27.2,14.8,0002.3,0025.97,0009.82,0007.28
2022-04-19 11:09:00,,0819.6,5.00,0.00,25.4,24.5,00.0,34.4,27.2,14.7,0002.0,0025.55,0009.69,0007.16
2022-04-19 11:10:00,,0819.6,5.00,0.00,25.4,24.4,00.0,34.4,27.1,14.6,0002.3,0025.18,0009.59,0007.06
2022-04-19 11:11:00,,0819.6,4.99,0.00,25.3,24.4,00.0,34.4,27.1,14.6,0002.7,0026.41,0009.57,0006.94
2022-04-19 11:12:00,,0819.6,4.99,0.00,25.3,24.3,00.0,34.4,27.0,14.6,0002.5,0028.35,0009.41,0006.79
2022-04-19 11:13:00,,0819.6,5.00,0.00,25.3,24.3,00.0,34.4,27.0,14.6,0002.7,0027.48,0009.27,0006.69
2022-04-19 11:14:00,,0819.5,5.00,0.00,25.2,24.3,00.0,34.4,27.0,14.6,0002.3,0027.91,0009.13,0006.61
2022-04-19 11:15:00,,0819.5,5.01,0.00,25.2,24.3,00.0,34.3,27.0,14.6,0001.7,0028.22,0009.04,0006.57
2022-04-19 11:16:00,,0819.6,4.99,0.00,25.2,24.3,00.0,34.3,27.0,14.8,0002.1,0028.16,0009.07,0006.55
2022-04-19 11:17:00,,0819.6,5.00,0.00,25.2,24.2,00.0,34.3,26.9,14.8,0002.2,0027.76,0009.08,0006.53
2022-04-19 11:18:00,,0819.5,5.00,0.00,25.1,24.1,00.0,34.3,26.9,14.7,0002.1,0026.90,0008.96,0006.49
2022-04-19 11:19:00,,0819.5,4.99,0.00,25.1,24.1,00.0,34.3,26.8,14.8,0002.3,0026.54,0008.99,0006.45
2022-04-19 11:20:00,,0819.5,5.00,0.00,25.1,24.1,00.0,34.2,26.8,14.8,0002.0,0025.25,0008.98,0006.44
2022-04-19 11:21:00,,0819.4,5.00,0.00,25.0,24.1,00.0,34.2,26.8,14.8,0001.7,0024.74,0008.95,0006.45
2022-04-19 11:22:00,,0819.4,5.01,0.00,25.0,24.0,00.0,34.2,26.7,14.9,0001.5,0023.89,0008.89,0006.49
2022-04-19 11:23:00,,0819.5,5.00,0.00,25.0,24.0,00.0,34.2,26.7,14.9,0001.7,0022.43,0008.88,0006.53
2022-04-19 11:24:00,,0819.5,5.00,0.00,25.0,24.1,00.0,34.1,26.8,14.8,0001.7,0022.84,0008.87,0006.55
2022-04-19 11:25:00,,0819.5,5.01,0.00,25.0,24.1,00.0,34.1,26.8,14.7,0001.4,0022.28,0008.94,0006.59
2022-04-19 11:26:00,,0819.5,4.99,0.00,25.0,24.1,00.0,34.1,26.8,14.7,0001.7,0021.67,0008.96,0006.61
2022-04-19 11:27:00,,0819.4,4.99,0.00,25.0,24.2,00.0,34.1,26.9,14.7,0000.9,0020.84,0008.98,0006.62
2022-04-19 11:28:00,,0819.3,5.00,0.00,25.1,24.2,00.0,34.1,26.9,14.7,0000.9,0020.76,0008.99,0006.63
2022-04-19 11:29:00,,0819.2,5.00,0.00,25.1,24.2,00.0,34.1,26.9,14.8,0000.9,0021.15,0009.04,0006.68
2022-04-19 11:30:00,,0819.2,5.00,0.00,25.1,24.2,00.0,34.1,26.9,14.8,0000.9,0021.52,0009.07,0006.74
2022-04-19 11:31:00,,0819.2,5.00,0.00,25.1,24.2,00.0,34.1,26.9,14.8,0001.1,0022.76,0009.15,0006.80
2022-04-19 11:32:00,,0819.2,5.01,0.00,25.1,24.2,00.0,34.1,26.8,15.0,0001.4,0022.71,0009.20,0006.83
2022-04-19 11:33:00,,0819.2,5.00,0.00,25.0,24.1,00.0,34.1,26.8,15.1,0001.1,0022.77,0009.23,0006.87
2022-04-19 11:34:00,,0819.2,5.01,0.00,25.0,24.1,00.0,34.1,26.8,15.1,0001.3,0022.38,0009.29,0006.90
2022-04-19 11:35:00,,0819.2,5.01,0.00,25.0,24.1,00.0,34.1,26.7,15.2,0000.9,0023.16,0009.38,0006.95
2022-04-19 11:36:00,,0819.2,5.00,0.00,24.9,24.0,00.0,34.0,26.7,15.3,0001.3,0022.44,0009.44,0006.99
2022-04-19 11:37:00,,0819.2,5.00,0.00,24.9,24.0,00.0,34.0,26.7,15.4,0001.5,0022.41,0009.54,0007.08
2022-04-19 11:38:00,,0819.2,4.99,0.00,24.9,23.9,00.0,34.0,26.6,15.6,0001.7,0022.86,0009.66,0007.17
2022-04-19 11:39:00,,0819.2,5.00,0.00,24.9,23.9,00.0,34.0,26.6,15.7,0001.4,0022.66,0009.73,0007.27
2022-04-19 11:40:00,,0819.3,4.99,0.00,24.8,23.9,00.0,34.0,26.6,15.8,0001.1,0022.94,0009.93,0007.35
2022-04-19 11:41:00,,0819.3,5.01,0.00,24.8,23.8,00.0,33.9,26.5,15.9,0001.0,0023.10,0010.09,0007.44
2022-04-19 11:42:00,,0819.3,5.00,0.00,24.8,23.7,00.0,33.9,26.5,15.9,0001.5,0022.84,0010.19,0007.50
2022-04-19 11:43:00,,0819.2,4.99,0.00,24.7,23.7,00.0,33.9,26.4,15.8,0001.7,0024.00,0010.21,0007.55
2022-04-19 11:44:00,,0819.1,5.00,0.00,24.7,23.6,00.0,33.9,26.4,15.9,0002.3,0023.60,0010.24,0007.57
2022-04-19 11:45:00,,0819.1,5.02,0.00,24.6,23.6,00.0,33.8,26.3,15.9,0002.1,0023.62,0010.24,0007.59
2022-04-19 11:46:00,,0819.0,5.00,0.00,24.6,23.5,00.0,33.8,26.3,15.8,0002.2,0022.84,0010.26,0007.61
2022-04-19 11:47:00,,0818.9,4.99,0.00,24.6,23.4,00.0,33.8,26.3,15.8,0002.4,0023.12,0010.22,0007.63
2022-04-19 11:48:00,,0819.0,4.99,0.00,24.5,23.4,00.0,33.8,26.2,15.8,0002.2,0023.34,0010.30,0007.64
2022-04-19 11:49:00,,0818.9,5.01,0.00,24.5,23.4,00.0,33.7,26.2,15.7,0001.6,0022.97,0010.26,0007.61
2022-04-19 11:50:00,,0819.0,5.00,0.00,24.5,23.4,00.0,33.7,26.1,15.8,0001.9,0022.82,0010.24,0007.56
2022-04-19 11:51:00,,0819.0,5.00,0.00,24.4,23.3,00.0,33.7,26.1,16.0,0002.1,0023.19,0010.17,0007.51
2022-04-19 11:52:00,,0818.9,4.99,0.00,24.4,23.3,00.0,33.6,26.1,16.1,0002.0,0023.75,0010.07,0007.49
2022-04-19 11:53:00,,0818.9,5.00,0.00,24.4,23.3,00.0,33.6,26.1,16.1,0001.5,0023.40,0010.03,0007.47
2022-04-19 11:54:00,,0819.0,5.01,0.00,24.4,23.3,00.0,33.6,26.1,16.1,0000.7,0022.72,0010.04,0007.48
2022-04-19 11:55:00,,0818.9,5.00,0.00,24.4,23.4,00.0,33.6,26.1,16.3,-000.2,0023.22,0010.13,0007.50
2022-04-19 11:56:00,,0819.0,5.00,0.00,24.4,23.5,00.0,33.5,26.2,16.4,-000.3,0023.22,0010.22,0007.58
2022-04-19 11:57:00,,0819.0,5.01,0.00,24.4,23.5,00.0,33.5,26.2,16.5,-000.0,0022.75,0010.20,0007.64
2022-04-19 11:58:00,,0818.9,5.00,0.00,24.4,23.5,00.0,33.5,26.2,16.3,-000.0,0022.74,0010.25,0007.68
2022-04-19 11:59:00,,0818.8,5.00,0.00,24.5,23.6,00.0,33.5,26.3,15.8,0000.0,0022.50,0010.16,0007.65
